Location: Complexul Astronomic Baia Mare
(47.6577°N, 23.5639°E)
Time: 05:51:34
(UTC+03:00)

ISS - Pass Details

Date: 11 March 2017
Orbit: 399 x 409 km, 51.6° (Epoch: 30 March)

Event Time Altitude Azimuth Distance (km) Brightness Sun altitude
Exits shadow 06:14:15 - 286° (WNW) 1,680 -1.3 -6.3°
Reaches altitude 10° 06:14:46 10° 289° (WNW) 1,479 -1.6 -6.2°
Maximum altitude 06:17:55 39° 0° (N) 632 -2.8 -5.7°
Drops below altitude 10° 06:21:04 10° 72° (ENE) 1,481 0.5 -5.2°
Sets 06:23:15 0° 80° (E) 2,343 2.3 -4.8°
